Temperature
11 11 11 11 11 11 11 11 10 10 10 10 10 10 10 10 11 11 11 11 11 11 11 11 11 10 10 10 10 10 10 10 10 10 11 11 11 11 11 11 11 10 11
10 10 10 10 10 10 10 10 10 10 10 10 10 10 10 10 10 10 10 10 11 11 11 11 10 10 10 10 10 10 10 10 10 10 10 10 10 10 10 10 10 10 10
10 10 9 9 9 10 9 9 9 9 9 9 9 9 10 10 10 10 10 10 10 10 10 10 10 10 9 9 10 10 10 10 10 10 10 10 10 10 10 10 10 10 10
9 9 9 9 9 9 9 9 9 9 9 9 9 9 9 9 9 9 10 10 9 10 10 10 10 9 9 9 9 9 9 9 9 9 9 9 9 9 9 9 9 9 9
9 9 8 8 8 8 8 8 8 8 8 8 8 8 9 9 9 9 9 9 9 9 9 9 9 9 9 9 8 8 8 9 9 9 9 9 9 9 9 9 9 9 9
8 8 8 8 8 8 8 7 7 7 7 7 7 7 8 8 8 8 8 8 8 8 8 8 8 8 8 8 8 8 8 8 8 8 8 8 8 8 8 8 8 9 9
8 7 7 7 7 7 7 7 7 7 7 6 6 7 7 7 8 7 8 8 8 8 8 8 8 8 7 7 7 7 7 7 7 7 7 7 7 8 8 8 8 8 8
7 7 7 7 6 6 6 6 6 6 6 6 6 5 6 6 7 7 7 7 7 7 7 7 7 7 7 7 7 7 7 7 7 7 7 7 7 7 7 7 7 7 7
6 6 6 6 6 6 6 6 5 5 5 5 5 5 5 5 6 6 6 6 6 6 6 6 6 6 6 6 6 6 6 6 6 6 6 6 6 6 6 6 6 6 6
6 6 6 6 5 5 5 5 5 5 5 5 5 5 5 5 5 5 5 5 5 5 6 6 6 6 5 5 5 5 5 5 5 5 5 6 6 6 6 6 6 6 6
5 5 5 5 5 5 5 4 4 4 4 4 4 4 4 4 4 4 4 4 5 5 5 5 5 5 5 5 5 5 5 5 5 5 5 5 5 5 5 5 5 5 5
4 4 4 4 4 4 4 4 4 4 4 4 4 4 4 4 4 4 4 4 4 4 4 4 4 4 4 4 4 4 4 4 4 4 4 4 4 4 4 5 5 5 5
4 4 4 4 4 4 4 3 3 3 3 3 3 3 3 3 3 3 3 3 3 3 3 4 4 4 4 4 4 4 4 4 3 4 4 4 4 4 4 4 4 4 4
3 3 3 3 3 3 3 3 3 3 3 3 3 3 3 3 3 3 3 2 2 2 2 3 3 3 3 3 3 3 3 3 3 3 3 3 3 3 3 4 4 4 4
3 3 3 3 3 3 3 3 2 2 2 2 2 2 2 2 2 2 2 2 2 1 1 2 2 2 2 2 2 2 2 2 2 2 2 3 3 3 3 3 3 3 3
3 3 3 2 2 2 2 2 2 2 2 2 2 2 2 2 2 2 2 1 1 1 1 1 1 2 2 2 2 2 2 2 2 2 2 2 2 2 2 3 3 3 3
2 2 2 2 2 2 1 1 1 2 1 1 1 1 1 1 1 1 1 1 1 1 0 1 1 1 1 1 1 1 1 1 2 2 2 2 2 2 2 2 2 2 2
2 1 1 1 1 1 1 1 1 1 1 1 1 1 1 1 1 1 1 1 1 0 0 0 0 1 1 0 1 1 1 1 1 1 1 1 1 1 1 1 2 2 2
1 1 1 1 1 1 0 0 0 0 0 0 0 0 0 0 0 0 0 0 0 -0 -0 -0 -0 -0 0 -0 0 0 0 0 0 1 0 0 0 1 1 1 1 1 1
1 0 0 0 0 -0 -0 -0 -0 -0 0 0 -0 -0 -0 -0 -0 0 -0 -0 -0 -0 -1 -0 -1 -0 -0 -0 -1 -1 -0 -0 -0 -0 -0 0 0 0 1 1 1 1 1
0 -0 -0 -0 -0 -1 -0 -0 -0 -0 -0 -0 -0 -0 -0 -1 -0 -0 -1 -1 -1 -1 -1 -1 -1 -1 -1 -1 -1 -1 -1 -1 -1 -0 -0 -0 0 0 0 0 0 1 1
-1 -1 -1 -1 -1 -1 -1 -1 -1 -1 -0 -0 -0 -1 -1 -1 -1 -1 -1 -1 -1 -1 -1 -1 -1 -1 -1 -1 -1 -1 -1 -1 -1 -1 -1 -1 -0 -0 0 0 0 0 0
-1 -1 -1 -1 -1 -1 -1 -1 -1 -1 -1 -1 -1 -1 -1 -1 -1 -1 -1 -1 -1 -1 -2 -1 -1 -1 -1 -1 -2 -1 -2 -2 -2 -1 -1 -1 -1 -0 -0 -0 -0 -0 -0
-1 -1 -2 -2 -2 -2 -2 -2 -1 -1 -1 -1 -1 -2 -2 -2 -2 -2 -2 -2 -2 -2 -2 -2 -2 -2 -2 -2 -2 -2 -2 -2 -2 -2 -2 -2 -1 -1 -1 -1 -1 -1 -1
-2 -2 -2 -2 -2 -2 -2 -2 -2 -2 -2 -2 -2 -2 -2 -2 -2 -2 -2 -2 -2 -2 -2 -2 -2 -2 -2 -2 -2 -2 -2 -2 -2 -2 -2 -2 -2 -2 -1 -1 -1 -1 -1
-2 -2 -2 -2 -2 -2 -2 -2 -3 -2 -2 -2 -2 -2 -2 -2 -2 -2 -2 -2 -2 -2 -2 -2 -2 -2 -2 -2 -2 -2 -2 -2 -2 -2 -2 -2 -2 -2 -2 -2 -1 -1 -1
Wind_Speed
1 1 1 1 1 1 1 1 1 2 2 2 2 2 2 2 2 1 1 3 3 4 5 6 5 5 5 6 5 6 6 7 7 8 8 8 8 8 8 9 9 9 9
2 1 1 1 1 1 1 1 2 2 2 2 2 2 2 2 2 2 3 3 4 4 5 5 5 6 6 6 6 6 6 7 8 8 8 8 8 8 9 9 10 10 10
1 1 1 0 1 1 1 1 2 2 1 2 2 2 2 2 2 3 3 3 3 4 5 6 6 6 6 6 6 6 7 7 8 8 8 9 9 9 10 10 11 11 11
1 1 1 0 0 0 1 1 1 1 1 1 2 2 2 2 3 3 3 3 3 3 4 5 5 6 6 7 7 7 7 7 8 8 9 9 10 10 11 11 11 12 12
1 1 0 0 1 1 1 1 1 0 1 2 2 2 2 3 3 3 3 3 3 3 3 3 5 6 6 7 7 8 8 8 8 9 9 10 10 11 11 12 12 12 13
1 1 1 0 0 1 1 1 1 1 1 2 3 3 3 4 4 3 3 2 2 2 3 3 3 5 7 7 8 8 9 9 9 10 10 11 11 11 12 12 13 13 14
1 1 0 0 0 1 1 1 1 1 1 1 1 3 4 4 4 3 1 1 2 2 2 3 2 3 5 7 8 9 9 10 10 10 10 11 12 12 13 13 14 14 15
1 0 0 1 1 1 1 1 1 1 1 1 1 1 2 3 2 2 1 2 2 1 2 3 3 4 3 3 5 8 10 11 11 11 11 12 13 13 14 14 15 15 15
1 1 0 1 1 1 2 2 2 2 1 2 1 1 1 2 2 2 3 2 2 2 2 3 4 4 4 3 4 6 8 10 11 11 11 11 12 13 13 14 15 16 16
1 1 1 1 2 2 2 2 2 1 2 2 2 2 2 1 1 2 2 2 2 2 3 3 3 4 4 4 5 6 7 9 10 11 12 12 13 13 13 14 14 15 16
2 2 2 2 2 2 3 3 2 2 2 2 2 2 2 2 2 3 4 3 3 3 2 3 3 3 4 4 4 6 8 9 10 12 12 12 13 13 14 14 14 15 15
2 3 2 2 3 2 3 3 3 3 3 3 2 2 2 2 2 2 4 4 4 3 3 3 3 3 4 4 5 7 8 9 10 11 11 12 13 13 14 14 15 15 16
1 2 2 2 2 2 3 2 3 3 4 4 4 3 3 3 3 3 3 4 4 4 3 3 3 2 3 3 4 7 8 9 9 10 11 12 12 13 14 14 15 15 16
2 2 2 2 2 2 3 3 3 3 3 3 4 4 3 3 3 3 3 3 4 4 3 4 2 2 2 3 5 7 6 9 10 11 12 12 12 12 13 13 14 15 15
2 2 2 2 3 3 3 3 3 4 4 3 4 4 3 3 3 3 3 3 3 4 4 3 2 2 3 4 6 5 5 8 10 11 12 12 12 12 13 13 14 14 15
2 2 2 3 3 3 3 3 3 3 3 3 3 4 3 3 3 3 3 3 3 4 5 3 3 4 4 6 8 7 7 9 11 11 12 13 12 12 13 13 13 13 13
2 2 3 3 3 3 3 3 3 3 3 3 3 4 4 3 3 3 3 3 3 3 6 5 4 4 5 5 5 6 7 7 8 11 12 12 12 13 13 13 13 13 13
2 3 3 3 3 3 3 3 3 3 4 4 4 4 3 3 3 3 3 4 4 4 4 6 5 4 5 5 4 5 5 6 6 10 12 12 12 13 13 13 13 13 13
3 3 3 3 3 3 3 3 3 4 4 4 4 4 4 3 3 3 4 4 4 4 4 5 5 4 4 4 5 5 6 4 7 8 10 11 12 12 13 13 12 12 12
3 3 3 3 3 3 3 3 3 4 4 3 4 4 4 4 4 4 4 4 4 4 3 3 4 4 4 4 4 4 5 4 5 6 8 9 10 12 12 12 12 12 12
3 3 3 3 3 3 3 3 3 3 3 3 3 3 3 4 5 4 4 3 3 3 3 3 4 4 4 3 4 4 5 5 5 4 4 5 6 6 7 10 10 11 11
3 3 3 3 3 4 5 5 4 3 3 3 3 3 3 4 5 6 7 6 5 5 4 4 4 5 5 4 4 5 5 5 5 3 4 6 4 5 5 5 8 10 10
3 3 3 4 4 4 5 5 5 3 3 3 3 3 3 3 3 2 4 5 5 6 6 5 5 6 5 5 5 5 5 5 5 5 5 6 4 5 5 6 9 9 9
3 3 4 4 4 4 5 5 5 3 2 2 3 3 3 2 2 2 2 2 2 4 4 4 4 5 5 5 5 5 5 5 5 4 3 4 5 4 5 4 8 8 8
3 3 3 3 3 4 5 5 4 2 2 2 2 2 2 3 4 4 2 2 3 3 4 6 6 6 7 9 7 4 3 4 5 4 2 2 3 4 4 3 5 7 8
3 3 3 3 3 3 4 4 4 2 2 2 2 2 3 3 5 4 2 2 3 4 3 4 4 5 5 5 6 4 3 3 3 3 2 1 3 3 3 2 2 4 5
Wind_Direction
120 84 54 73 52 37 12 335 329 335 337 326 302 289 293 305 313 279 251 248 256 262 271 276 283 282 279 280 284 289 292 295 299 300 304 303 303 304 306 298 301 298 297
97 100 67 72 41 24 351 341 334 330 321 309 298 300 290 285 288 287 257 249 243 251 261 268 279 283 285 282 283 288 289 291 293 296 300 301 299 302 303 302 297 299 293
98 85 123 124 55 15 336 335 332 342 321 306 293 299 304 293 273 269 257 246 233 241 256 264 270 279 284 286 287 289 291 292 292 294 295 299 298 298 299 302 298 296 296
72 67 118 185 51 10 348 301 267 304 310 300 298 299 302 301 281 266 255 243 231 228 246 256 265 275 280 284 287 288 290 289 288 290 293 295 294 293 295 298 301 296 297
62 63 99 28 27 8 308 267 288 294 299 301 290 287 287 280 276 273 254 249 237 219 216 243 257 272 279 282 286 288 289 289 288 288 290 293 293 292 293 294 297 298 297
40 38 68 90 70 177 232 252 281 304 276 289 301 300 287 273 264 251 256 259 250 227 227 235 240 262 272 278 282 284 288 289 290 288 288 291 289 290 292 292 294 295 296
63 2 102 123 105 196 237 251 266 278 302 318 324 310 289 270 253 238 245 256 262 252 247 249 241 251 262 269 278 283 287 288 289 289 288 290 289 288 290 291 294 294 295
125 54 13 206 195 204 232 251 239 229 278 295 316 320 301 301 290 269 244 236 255 274 276 272 263 258 261 260 272 278 284 288 288 290 291 291 289 288 289 290 292 293 295
150 144 274 274 236 206 218 236 230 214 243 269 254 218 232 257 314 279 255 246 245 259 264 263 258 260 268 270 269 275 283 288 290 292 294 295 295 293 294 292 291 292 293
214 197 204 244 234 227 227 237 239 242 218 241 272 267 257 252 257 296 293 275 265 265 264 272 271 261 259 263 271 277 286 289 290 292 292 293 295 296 298 299 299 297 295
223 219 206 221 225 226 223 228 242 241 228 229 237 268 282 286 252 248 278 288 295 279 275 270 263 261 260 260 269 274 286 289 291 291 294 295 297 299 298 299 300 302 303
217 218 213 213 224 228 224 224 230 230 230 231 235 232 240 248 255 252 266 283 287 284 281 269 257 255 260 262 274 285 290 291 295 296 298 299 299 301 301 300 300 300 301
230 231 233 215 220 230 231 227 229 234 229 225 228 232 236 245 250 261 266 278 287 291 280 270 253 259 274 275 284 289 293 298 301 301 302 302 299 299 301 301 299 298 299
236 247 250 237 239 241 240 227 228 238 236 234 241 235 239 247 247 249 249 266 288 290 274 267 279 260 282 294 289 289 287 294 299 300 300 301 300 298 298 300 301 299 298
259 262 257 234 236 232 229 225 224 232 233 232 240 239 239 243 246 250 248 237 243 272 278 268 279 293 306 300 292 287 279 288 294 297 297 298 297 297 297 298 298 298 298
257 243 248 241 239 237 233 231 235 233 233 236 240 240 244 246 244 247 247 248 240 249 267 277 287 295 307 299 294 297 283 288 289 291 294 295 297 296 296 299 300 300 301
243 245 252 248 239 240 234 236 240 235 235 242 248 245 246 246 244 246 247 247 248 248 266 281 281 290 295 293 301 300 292 281 282 287 290 294 298 298 298 299 300 301 301
235 239 243 247 238 241 234 231 245 242 232 237 243 244 248 248 246 254 252 249 250 245 256 276 285 288 289 286 290 292 296 296 289 288 289 292 295 296 297 297 298 299 301
236 241 240 241 237 237 236 238 242 243 234 232 237 240 244 245 253 255 256 254 254 261 258 264 279 286 290 293 299 295 292 298 301 297 294 293 294 295 296 297 297 297 299
233 237 238 241 237 236 234 240 242 243 234 233 238 241 242 240 244 247 254 254 256 259 256 261 275 284 285 287 291 297 302 299 302 306 303 299 297 297 298 298 297 297 297
245 238 237 240 237 236 237 243 238 245 230 236 245 244 245 254 260 252 259 252 255 259 258 260 268 281 282 290 293 294 296 301 297 298 306 299 296 294 299 299 298 298 299
240 231 233 236 237 247 260 264 255 236 235 233 242 249 248 248 258 266 271 269 261 254 253 260 269 270 276 283 289 292 296 303 300 305 312 306 300 297 297 301 300 302 303
240 238 239 234 236 242 260 265 262 243 238 232 228 238 258 260 271 255 270 282 284 278 266 263 267 274 277 277 281 290 290 292 288 293 305 299 302 301 298 309 310 309 311
237 234 237 233 235 243 253 260 263 245 238 236 233 234 237 234 244 259 259 276 283 289 282 279 266 276 283 282 272 271 274 285 288 293 290 286 294 293 301 310 313 315 318
239 237 233 234 231 234 245 250 258 228 230 249 252 246 241 229 252 274 268 271 288 294 296 289 289 292 294 295 293 293 289 290 298 300 291 271 283 296 299 303 321 328 328
237 237 247 239 225 227 241 245 250 217 217 241 255 247 253 259 264 275 246 237 267 279 291 308 308 308 308 306 305 295 280 282 289 292 289 286 293 317 310 300 319 337 334
Height
1509 1510 1511 1512 1513 1513 1514 1514 1515 1515 1516 1516 1517 1517 1518 1518 1518 1518 1518 1518 1518 1518 1518 1518 1518 1518 1518 1518 1518 1517 1517 1517 1517 1517 1517 1516 1516 1516 1515 1515 1514 1514 1513
1507 1508 1509 1509 1510 1511 1512 1512 1513 1513 1513 1514 1514 1514 1515 1515 1515 1515 1515 1515 1515 1515 1515 1515 1515 1515 1515 1515 1514 1514 1514 1514 1513 1513 1513 1513 1512 1512 1512 1511 1510 1510 1509
1504 1505 1506 1507 1508 1508 1509 1510 1510 1510 1510 1511 1511 1511 1511 1511 1511 1512 1512 1512 1512 1512 1512 1512 1512 1511 1511 1511 1511 1511 1510 1510 1510 1510 1509 1509 1508 1508 1508 1507 1507 1506 1505
1501 1502 1503 1504 1505 1505 1506 1507 1507 1507 1507 1507 1507 1507 1508 1508 1508 1508 1508 1508 1508 1508 1508 1508 1508 1508 1508 1508 1508 1507 1507 1506 1506 1506 1506 1505 1505 1504 1504 1503 1503 1502 1501
1498 1499 1500 1501 1502 1502 1502 1503 1504 1504 1504 1503 1503 1504 1504 1504 1504 1504 1504 1505 1505 1505 1505 1504 1504 1504 1504 1504 1504 1504 1503 1503 1502 1502 1501 1501 1501 1500 1499 1499 1498 1498 1497
1495 1496 1497 1497 1498 1498 1499 1500 1500 1500 1500 1500 1500 1500 1500 1500 1500 1500 1501 1501 1501 1501 1501 1501 1501 1501 1500 1500 1500 1500 1499 1499 1498 1497 1497 1497 1496 1495 1495 1494 1493 1493 1492
1492 1493 1493 1494 1494 1495 1495 1496 1496 1497 1497 1497 1497 1496 1496 1496 1496 1497 1497 1497 1497 1497 1497 1497 1497 1497 1496 1496 1496 1495 1495 1494 1494 1493 1492 1492 1491 1490 1490 1489 1488 1488 1487
1489 1489 1490 1490 1490 1491 1492 1492 1493 1493 1494 1494 1495 1494 1493 1494 1493 1493 1493 1493 1493 1494 1493 1493 1493 1493 1492 1492 1491 1491 1491 1490 1489 1489 1488 1487 1486 1485 1485 1484 1483 1482 1482
1485 1486 1486 1487 1487 1487 1488 1488 1489 1489 1490 1491 1492 1493 1492 1490 1490 1489 1489 1490 1490 1490 1489 1489 1489 1489 1488 1487 1487 1487 1486 1485 1485 1484 1483 1482 1481 1480 1479 1479 1478 1477 1476
1482 1482 1483 1483 1483 1484 1484 1484 1485 1486 1486 1487 1488 1489 1490 1489 1489 1486 1486 1486 1486 1486 1486 1485 1485 1485 1484 1483 1483 1482 1481 1481 1480 1479 1478 1477 1476 1475 1474 1473 1472 1471 1470
1478 1478 1479 1479 1479 1480 1480 1481 1481 1482 1483 1483 1484 1485 1485 1485 1485 1484 1482 1482 1482 1482 1482 1481 1481 1481 1480 1479 1479 1478 1477 1476 1475 1474 1473 1472 1471 1470 1468 1467 1466 1465 1464
1474 1474 1475 1475 1475 1475 1476 1477 1477 1478 1479 1479 1480 1480 1481 1481 1481 1481 1480 1478 1477 1477 1477 1477 1477 1476 1476 1475 1474 1474 1473 1471 1471 1469 1468 1466 1465 1464 1463 1462 1460 1459 1459
1470 1470 1471 1471 1471 1471 1472 1473 1474 1474 1475 1475 1476 1476 1477 1477 1478 1478 1477 1475 1473 1472 1472 1472 1473 1472 1472 1471 1470 1469 1468 1467 1466 1465 1463 1462 1460 1459 1457 1456 1455 1454 1453
1466 1466 1467 1467 1467 1468 1468 1469 1470 1470 1471 1471 1471 1472 1472 1473 1473 1473 1473 1472 1470 1469 1468 1468 1469 1468 1468 1467 1466 1465 1464 1462 1461 1460 1458 1457 1455 1454 1452 1451 1449 1448 1447
1463 1463 1463 1463 1464 1464 1464 1465 1465 1466 1466 1466 1467 1467 1467 1468 1468 1469 1469 1469 1469 1466 1464 1464 1464 1464 1463 1462 1461 1460 1459 1458 1456 1455 1454 1452 1450 1449 1447 1446 1444 1443 1442
1459 1459 1459 1459 1459 1459 1460 1461 1461 1461 1462 1462 1463 1463 1463 1463 1464 1464 1464 1464 1464 1464 1461 1460 1460 1460 1459 1458 1457 1456 1454 1453 1451 1450 1449 1447 1445 1443 1442 1440 1439 1437 1436
1455 1455 1455 1455 1455 1455 1456 1456 1456 1457 1457 1458 1458 1459 1458 1459 1459 1459 1460 1460 1460 1459 1457 1456 1456 1456 1455 1454 1452 1451 1449 1448 1446 1445 1443 1442 1440 1438 1437 1435 1434 1432 1431
1451 1451 1451 1451 1451 1451 1451 1452 1452 1452 1452 1453 1454 1454 1454 1454 1454 1455 1455 1455 1455 1455 1454 1452 1451 1451 1450 1449 1448 1446 1445 1443 1442 1440 1438 1437 1435 1433 1432 1430 1429 1427 1426
1447 1447 1447 1447 1447 1447 1447 1447 1448 1448 1449 1449 1449 1450 1449 1450 1450 1450 1450 1450 1450 1450 1450 1449 1447 1446 1446 1445 1443 1442 1440 1439 1437 1435 1434 1432 1430 1429 1427 1426 1424 1422 1421
1442 1442 1442 1443 1443 1443 1443 1443 1444 1444 1444 1445 1445 1445 1445 1445 1445 1446 1446 1446 1446 1446 1445 1445 1444 1442 1441 1440 1439 1437 1435 1434 1432 1431 1429 1427 1425 1424 1422 1421 1419 1418 1416
1438 1439 1439 1439 1439 1439 1439 1439 1440 1440 1440 1441 1441 1441 1441 1442 1442 1442 1442 1442 1442 1441 1441 1441 1440 1438 1437 1436 1435 1434 1432 1429 1427 1426 1424 1422 1420 1419 1417 1416 1414 1413 1412
1435 1435 1435 1435 1435 1435 1435 1435 1436 1436 1437 1437 1437 1437 1438 1438 1438 1438 1438 1438 1438 1438 1437 1437 1435 1434 1433 1433 1432 1430 1428 1426 1423 1423 1420 1417 1416 1414 1412 1411 1409 1408 1407
1431 1431 1431 1431 1431 1431 1431 1432 1432 1433 1433 1433 1433 1434 1434 1434 1434 1434 1434 1434 1434 1434 1435 1434 1432 1431 1430 1429 1429 1427 1425 1423 1421 1419 1417 1412 1411 1409 1408 1406 1405 1403 1402
1427 1427 1427 1427 1427 1427 1428 1428 1429 1429 1429 1430 1430 1430 1430 1430 1431 1431 1430 1430 1430 1430 1430 1430 1429 1428 1427 1426 1426 1424 1422 1420 1417 1415 1414 1410 1407 1405 1404 1402 1401 1400 1399
1423 1423 1423 1423 1424 1424 1424 1425 1426 1426 1426 1426 1426 1427 1427 1427 1428 1428 1427 1427 1426 1426 1427 1426 1426 1425 1424 1423 1422 1420 1418 1416 1413 1411 1410 1407 1404 1402 1400 1399 1398 1397 1396
1420 1420 1420 1420 1420 1420 1421 1422 1423 1422 1422 1423 1423 1424 1424 1424 1424 1424 1424 1424 1423 1423 1423 1422 1422 1421 1420 1419 1418 1417 1415 1413 1410 1408 1407 1405 1402 1401 1398 1396 1395 1394 1393